Timeline UpdatesTrip UpdatesNews PostsPvt PostsTravel TipsAdmin PostsConv PostsFollowed PostsChat RequestsBlog PostsPNR Posts

Disclaimer
Search
 
 
Sun Sep 21, 2014 21:39:58 ISTHomeTrainsΣChainsAtlasPNRForumGalleryNewsFAQTripsMembersLoginFeedback
No Recent News for this Train
Other Trains in the News **new
Latest...
.
Mon Jul 28, 2014 (03:38PM)
⇐ Return Journey: Train# 59386-Slip

18238-Slip/Chhattisgarh Express Slip

Time-Table HAS CHANGED.
Sep 04 (10:14PM)
Change Departure Station:
Change Arrival Station:
Post a Train Travel TipPost a Train Travel Tip **new
Post a Comment/Question/Picture/VideoPost a Comment/Question/Picture/Video
Pantry/Catering
✕ NO Pantry Car
✕ NO Catering
RSA - Rake Sharing
.
Rake/Coach Composition
Attached to 59385 Panchvalley Fast Passenger at Amla to run upto Chhindwara ; SP1(Itz attached at the end of the train)
Loco
ASR - NZM > TKD WDP4B/4D NZM-AMLA> AJNI WAP7 AMLA-CWA> RTM WDM3A
News    PNR    Forum    Time-Table    Availability    Fare Chart    Map    Arr/Dep History    Trips    Gallery    ΣChains    X/O    Timeline    
Travel Time: 12h 0m    20 halts    Distance: 474 km    Avg Speed: 39 km/hr
Type: Mail/Express
Zone: CR/Central
Departs @ 16:30
Platform# 2
SMTWTFS
Bina Junction/BINA 
Arrives @ 04:30 +1 night
Platform# 3
SMTWTFS
Chhindwara Junction/CWA 

20 halts. 67 intermediate Stations between Bina Junction and Chhindwara Junction

Show ALL intermediate Stations  Show Old Time-Table

#CodeStation NameX/OArrivesAvgDepartsAvgHaltPFDay#KmSpeedElevZoneAddress
1ASRAmritsar Junction (5)  -16:15-21-1071.177233mNRAmritsar 143002, Punjab
2JNLJandiala (2)  16:30-16:32-2m21-1051.980238mNRJandiala, Punjab
3BEASBeas Junction (2)  16:50-16:52-2m21-1028.061238mNRBeas, Punjab
4KREKartarpur (2)X  17:13-17:15-2m11-1006.668236mNRKartarpur, Punjab
5JUCJalandhar City Junction (5)X  17:27 17:28-17:35 17:34-8 6m21-991.929239mNRJalandhar 144001, Punjab
6JRCJalandhar Cantt. Junction (3)X  17:48 17:44-17:50 17:46-2m21-987.165239mNRNear Rama Mandi, Punjab
7PGWPhagwara Junction (3)  18:05 18:01-18:07 18:03-2m11-970.845245mNRPhagwara, Punjab
8GRYGoraya (2)XO  18:21 18:16-18:23 18:18-2m11-960.927240mNRGoraya, Punjab
9PHRPhillaur Junction (3)X  18:46-18:48-2m11-948.246246mNRPhillaur, Punjab
10LDHLudhiana Junction (7)X  19:05-19:15-10m11-935.122246mNRLudhiana 141001, Punjab
11SNLSanehwal (3)X  19:56-19:58-2m21-920.055260mNRLudhiana, Punjab
12DOADoraha (2)  20:06-20:08-2m21-912.757261mNRDoraha, Punjab
13CHAChawapail (2)X  20:18-20:20-2m21-903.266267mNRLudhiana, Punjab
14KNNKhanna (3)  20:30-20:32-2m21-892.354269mNRNH 1, Punjab
15GVGMandi Gobindgarh (2)  20:41-20:43-2m11-884.249268mNRMandi Gobindgarh, Punjab
16SIRSirhind Junction (3)  20:55-20:57-2m21-874.465271mNRSirhind, Punjab
17RPJRajpura Junction (3)X  21:20-21:22-2m21-849.656272mNRNH-1, Punjab
18UBCAmbala City (3)X  21:44-21:46-2m11-829.121273mNRNH-1, Haryana
19UMBAmbala Cantt. Junction (7)X  22:08-22:20-12m11-821.568278mNRAmbala 133001, Haryana
20RAABarara (2)  22:42-22:44-2m11-796.771279mNRBarara, Haryana
21JUDWJagadhri Workshop (2)  23:02-23:04-2m11-775.543280mNRRailway Workshop Road, Haryana
22JUDYamunanagar-Jagadhri (3)  23:11-23:13-2m21-770.535275mNRYamunanagar, Haryana
23SRESaharanpur Junction (6)X  00:05-00:15-10m--2-740.468276mNRSaharanpur, Uttar Pradesh
24DBDDeoband (2)  00:45-00:47-2m--2-706.276258mNRSaharanpur, Uttar Pradesh
25MOZMuzaffarnagar (3)  01:06-01:08-2m--2-682.178247mNRMuzaffarNagar, Uttar Pradesh
26KATKhatauli (2)  01:34 01:25-01:36 01:27-2m--2-660.077239mNRKhatauli, Uttar Pradesh
27DRLADaurala (1)  01:56 01:41-01:58 01:43-2m12-642.051232mNRMeerut, Uttar Pradesh
28MUTMeerut Cantt. (2)  02:09 01:56-02:11 01:58-2m--2-630.929230mNRMeerut, Uttar Pradesh
29MTCMeerut City Junction (6)  02:20 02:07-02:25 02:12-5m22-626.569229mNRMeerut, Uttar Pradesh
30MDNRModinagar (2)  02:39 02:29-02:41 02:31-2m--2-607.160221mNRGhaziabad, Uttar Pradesh
31GUHGuldhar (2)  02:55 02:49-02:57 02:51-2m--2-589.016224mNRGhaziabad, Uttar Pradesh
32GZBGhaziabad Junction (6)  03:28-03:30-2m32-579.345217mNRGhaziabad, Uttar Pradesh
33SBBSahibabad Junction (5)  03:38 03:39-03:40 03:41-2m--2-572.633209mNRGhaziabad, Uttar Pradesh
34NZMDelhi Hazrat Nizamuddin (7)X  04:15 04:10-04:40-25 30m22-556.660209mNRNew Delhi 110013, Delhi NCT
35BVHBallabgarh (5)X  05:09-05:11-2m42-527.742203mNRFaridabad, Haryana
36PWLPalwal (8)X  05:41-05:43-2m42-506.585200mNRPalwal, Haryana
37KSVKosi Kalan (3)X  06:13-06:15-2m22-464.156189mNCRKosi Kalan, Uttar Pradesh
38CHJChata (4)X  06:26-06:28-2m--2-453.869 NCRChhata, Uttar Pradesh
39MTJMathura Junction (10)X  06:55-07:00-5m12-422.662179mNCRMathura, Uttar Pradesh
40RKMRaja Ki Mandi (4)XO  07:56 07:48-07:58 07:50-2m22-372.96170mNCRAgra, Uttar Pradesh
41AGCAgra Cantt. (6)X  08:30-08:40 08:38-10 8m12-368.975174mNCRAgra, Uttar Pradesh
42DHODholpur Junction (3)X  09:20-09:22-2m32-316.362177mNCRDholpur, Rajasthan
43MRAMorena (3)X  09:48-09:50-2m12-289.572176mNCRMorena, Madhya Pradesh
44BAOBanmorXO  10:04 10:06-10:06 10:08-2m--2-270.231189mNCRGwalior, Madhya Pradesh
45GWLGwalior Junction (4)XO  10:45-10:50-5m12-250.963214mNCRGwalior, Madhya Pradesh
46DBADabra (3)  11:28 11:30-11:30 11:32-2m--2-208.663 NCRDabra(District-Gwalior), Madhya Pradesh
47SORSonagir (2)O  11:48 11:50-11:50 11:52-2m--2-189.830211mNCRDatia, Madhya Pradesh
48DAADatia (2)X  12:13 12:15-12:15 12:17-2m--2-178.328264mNCRDatia, Madhya Pradesh
49JHSJhansi Junction (7)  13:10-13:20-10m--2-153.267259mNCRJhansi, Uttar Pradesh
50BABBabina (3)X  13:43-13:45-2m12-127.752285mNCRBabina, Uttar Pradesh
51BZYBasai (3)X  13:59-14:01-2m12-115.659287mNCR07522289600(Gate ManMob. - 9452701575), Madhya Pradesh
52TBTTalbahat (4)X  14:15 14:14-14:17 14:16-2m22-102.8100314mNCRKhaniyadhana Station Rd, Madhya Pradesh
53LARLalitpur (3)  14:46 14:40-14:48 14:42-2m12-62.991373mNCRLalitpur, Uttar Pradesh
54JLNJakhalaun (3) new halt!!XO  14:53-14:55-2m--2-46.246394mNCRLalitpur(05176-272220), Uttar Pradesh
55DUADhaura (3)XO  15:08 15:10-15:10 15:12-2m--2-34.628407mNCRDhaura Tanda, Madhya Pradesh
56BINABina Junction (5)»X  16:25-16:30-5m220.069414mWCRJn Pt - KATNI/GUNA/ BPL/JHS, Madhya Pradesh
57MABAMandi Bamora (3)XO  16:45-16:47-2m2217.278413mWCRState Highway 14, Madhya Pradesh
58BAQGanj Basoda (4)  17:09-17:11-2m2245.884 WCRVidisha, Madhya Pradesh
59BHSVidisha (3)X  17:39-17:41-2m2285.154 WCRVidisha, Madhya Pradesh
60BPLBhopal Junction (6)X  18:40-18:45-5m12138.638497mWCRBhopal, Madhya Pradesh
61HBJBhopal HabibGanj (5)  18:55-18:57-2m--2144.843496mWCRHabibGanj, Madhya Pradesh
62HBDHoshangabad (2)XO  20:30-20:32-2m--2212.233308mWCRHoshangabad, Madhya Pradesh
63ETItarsi Junction (7)X  21:10 21:05-21:15-5 10m--2230.368329mWCRItarsi 461111, Madhya Pradesh
64GDYAGhoradongri (3)X  22:17-22:19-2m--2300.749 CRBetul, Madhya Pradesh
65BZUBetul (3)  23:03-23:05-2m--2336.646644mCRBetul, Madhya Pradesh
66AMLAAmla Junction (5)23:35-01:10-95m--2359.539733mCRAmla Distt. Betul, Madhya Pradesh
67JMVJambara (1)  01:31-01:33-2m13373.250706mCRAmla, Madhya Pradesh
68BCRDBarchi Road (1)O  01:41-01:43-2m13379.865713mCRState Highway 26, Madhya Pradesh
69BXYBordhal (1)O  01:49-01:51-2m13386.346710mCRAmla, Madhya Pradesh
70NVGNavegaon (1)  02:12-02:14-2m13402.256794mCRNayagaon, Madhya Pradesh
71HRGHirdagarh (2)O  02:30-02:32-2m--3417.147721mCRDongar Parasia, Madhya Pradesh
72JNOJunnor Deo (2)O  02:45-02:47-2m--3427.236762mCRDongar Parasia, Madhya Pradesh
73IKRIklehra (1)  03:08-03:10-2m13439.742771mCRDongar Parasia, Madhya Pradesh
74PUXParasia (2)O  03:19-03:21-2m--3446.0150775mCRDongar Parasia, Madhya Pradesh
75KUXKhirsadoh Junction (2)  03:24-03:26-2m--3453.521769mCRChhindwara, Madhya Pradesh
76GNWGangiwara (1)  03:48-03:50-2m13461.120714mCRChhindwara, Madhya Pradesh
77CWAChhindwara Junction (3)•  04:30--33474.4-675mSECRNH 69A Seoni Road, Madhya Pradesh
Scroll to Top
Scroll to Bottom